Time,TemperatureF,DewpointF,PressureIn,WindDirection,WindDirectionDegrees,WindSpeedMPH,WindSpeedGustMPH,Humidity,HourlyPrecipIn,Conditions,Clouds,dailyrainin,SoftwareType,DateUTC
2013-05-29 00:00:00,69.8,0.0,30.13,North,0,3.0,11.0,0,0.00,,,0.00,Weather View 32 v70,2013-05-29 04:00:00,
2013-05-29 00:01:00,69.6,0.0,30.13,North,0,4.0,11.0,0,0.00,,,0.00,Weather View 32 v70,2013-05-29 04:01:00,
2013-05-29 00:02:00,69.6,0.0,30.14,South,180,3.0,11.0,0,0.00,,,0.00,Weather View 32 v70,2013-05-29 04:02:00,
2013-05-29 00:07:00,69.8,0.0,30.13,North,0,4.0,11.0,0,0.00,,,0.00,Weather View 32 v70,2013-05-29 04:07:00,
2013-05-29 00:12:00,69.6,0.0,30.14,North,0,3.0,11.0,0,0.00,,,0.00,Weather View 32 v70,2013-05-29 04:12:00,
2013-05-29 00:18:00,69.6,0.0,30.13,West,270,0.0,11.0,0,0.00,,,0.00,Weather View 32 v70,2013-05-29 04:18:00,
2013-05-29 00:23:00,69.3,0.0,30.14,West,270,2.0,11.0,0,0.00,,,0.00,Weather View 32 v70,2013-05-29 04:23:00,
2013-05-29 00:28:00,69.1,0.0,30.14,North,0,3.0,11.0,0,0.00,,,0.00,Weather View 32 v70,2013-05-29 04:28:00,
2013-05-29 00:33:00,69.1,0.0,30.14,North,0,3.0,11.0,0,0.00,,,0.00,Weather View 32 v70,2013-05-29 04:33:00,
2013-05-29 00:38:00,68.9,0.0,30.13,West,270,2.0,11.0,0,0.00,,,0.00,Weather View 32 v70,2013-05-29 04:38:00,
2013-05-29 00:43:00,68.9,0.0,30.13,SSE,158,5.0,11.0,0,0.00,,,0.00,Weather View 32 v70,2013-05-29 04:43:00,
2013-05-29 00:48:00,68.7,0.0,30.13,North,0,2.0,11.0,0,0.00,,,0.00,Weather View 32 v70,2013-05-29 04:48:00,
2013-05-29 00:53:00,68.7,0.0,30.14,South,180,7.0,11.0,0,0.00,,,0.00,Weather View 32 v70,2013-05-29 04:53:00,
2013-05-29 00:58:00,68.5,0.0,30.15,South,180,4.0,10.0,0,0.00,,,0.00,Weather View 32 v70,2013-05-29 04:58:00,
2013-05-29 01:03:00,68.2,0.0,30.14,North,0,2.0,8.0,0,0.00,,,0.00,Weather View 32 v70,2013-05-29 05:03:00,
2013-05-29 01:09:00,68.2,0.0,30.14,North,0,3.0,8.0,0,0.00,,,0.00,Weather View 32 v70,2013-05-29 05:09:00,
2013-05-29 01:14:00,68.0,0.0,30.15,North,0,2.0,8.0,0,0.00,,,0.00,Weather View 32 v70,2013-05-29 05:14:00,
2013-05-29 01:19:00,67.8,0.0,30.14,South,180,3.0,8.0,0,0.00,,,0.00,Weather View 32 v70,2013-05-29 05:19:00,
2013-05-29 01:24:00,67.8,0.0,30.14,North,0,4.0,9.0,0,0.00,,,0.00,Weather View 32 v70,2013-05-29 05:24:00,
2013-05-29 01:29:00,67.5,0.0,30.14,West,270,2.0,9.0,0,0.00,,,0.00,Weather View 32 v70,2013-05-29 05:29:00,
2013-05-29 01:34:00,67.5,0.0,30.15,South,180,4.0,9.0,0,0.00,,,0.00,Weather View 32 v70,2013-05-29 05:34:00,
2013-05-29 01:39:00,67.5,0.0,30.15,West,270,0.0,9.0,0,0.00,,,0.00,Weather View 32 v70,2013-05-29 05:39:00,
2013-05-29 01:45:00,67.3,0.0,30.14,North,0,2.0,9.0,0,0.00,,,0.00,Weather View 32 v70,2013-05-29 05:45:00,
2013-05-29 01:50:00,67.3,0.0,30.14,South,180,5.0,9.0,0,0.00,,,0.00,Weather View 32 v70,2013-05-29 05:50:00,
2013-05-29 01:55:00,67.3,0.0,30.14,North,0,3.0,9.0,0,0.00,,,0.00,Weather View 32 v70,2013-05-29 05:55:00,
2013-05-29 02:00:00,66.9,0.0,30.13,North,0,1.0,9.0,0,0.00,,,0.00,Weather View 32 v70,2013-05-29 06:00:00,
2013-05-29 02:05:00,66.9,0.0,30.13,South,180,5.0,9.0,0,0.00,,,0.00,Weather View 32 v70,2013-05-29 06:05:00,
2013-05-29 02:10:00,66.9,0.0,30.13,West,270,0.0,9.0,0,0.00,,,0.00,Weather View 32 v70,2013-05-29 06:10:00,
2013-05-29 02:15:00,66.7,0.0,30.13,West,270,3.0,9.0,0,0.00,,,0.00,Weather View 32 v70,2013-05-29 06:15:00,
2013-05-29 02:20:00,66.6,0.0,30.13,North,0,2.0,9.0,0,0.00,,,0.00,Weather View 32 v70,2013-05-29 06:20:00,
2013-05-29 02:25:00,66.4,0.0,30.12,North,0,2.0,9.0,0,0.00,,,0.00,Weather View 32 v70,2013-05-29 06:25:00,
2013-05-29 02:30:00,66.4,0.0,30.13,South,180,5.0,9.0,0,0.00,,,0.00,Weather View 32 v70,2013-05-29 06:30:00,
2013-05-29 02:35:00,66.4,0.0,30.13,North,0,2.0,8.0,0,0.00,,,0.00,Weather View 32 v70,2013-05-29 06:35:00,
2013-05-29 02:40:00,66.2,0.0,30.13,South,180,3.0,8.0,0,0.00,,,0.00,Weather View 32 v70,2013-05-29 06:40:00,
2013-05-29 02:45:00,66.0,0.0,30.15,North,0,2.0,8.0,0,0.00,,,0.00,Weather View 32 v70,2013-05-29 06:45:00,
2013-05-29 02:50:00,66.0,0.0,30.13,North,0,2.0,8.0,0,0.00,,,0.00,Weather View 32 v70,2013-05-29 06:50:00,
2013-05-29 02:55:00,65.8,0.0,30.13,North,0,2.0,8.0,0,0.00,,,0.00,Weather View 32 v70,2013-05-29 06:55:00,
2013-05-29 03:00:00,65.7,0.0,30.14,South,180,3.0,8.0,0,0.00,,,0.00,Weather View 32 v70,2013-05-29 07:00:00,
2013-05-29 03:05:00,65.7,0.0,30.13,North,0,2.0,8.0,0,0.00,,,0.00,Weather View 32 v70,2013-05-29 07:05:00,
2013-05-29 03:10:00,65.5,0.0,30.14,West,270,1.0,8.0,0,0.00,,,0.00,Weather View 32 v70,2013-05-29 07:10:00,
2013-05-29 03:16:00,65.3,0.0,30.13,North,0,3.0,8.0,0,0.00,,,0.00,Weather View 32 v70,2013-05-29 07:16:00,
2013-05-29 03:21:00,65.1,0.0,30.13,West,270,0.0,8.0,0,0.00,,,0.00,Weather View 32 v70,2013-05-29 07:21:00,
2013-05-29 03:26:00,65.1,0.0,30.15,North,0,1.0,7.0,0,0.00,,,0.00,Weather View 32 v70,2013-05-29 07:26:00,
2013-05-29 03:31:00,64.9,0.0,30.14,North,0,1.0,6.0,0,0.00,,,0.00,Weather View 32 v70,2013-05-29 07:31:00,
2013-05-29 03:40:00,64.8,0.0,30.15,North,0,0.0,6.0,0,0.00,,,0.00,Weather View 32 v70,2013-05-29 07:40:00,
2013-05-29 03:45:00,64.6,0.0,30.14,West,270,0.0,6.0,0,0.00,,,0.00,Weather View 32 v70,2013-05-29 07:45:00,
2013-05-29 03:50:00,64.4,0.0,30.14,West,270,0.0,6.0,0,0.00,,,0.00,Weather View 32 v70,2013-05-29 07:50:00,
2013-05-29 03:55:00,64.0,0.0,30.14,West,270,2.0,6.0,0,0.00,,,0.00,Weather View 32 v70,2013-05-29 07:55:00,
2013-05-29 04:00:00,63.9,0.0,30.14,West,270,0.0,5.0,0,0.00,,,0.00,Weather View 32 v70,2013-05-29 08:00:00,
2013-05-29 04:05:00,63.7,0.0,30.14,West,270,0.0,5.0,0,0.00,,,0.00,Weather View 32 v70,2013-05-29 08:05:00,
2013-05-29 04:10:00,63.7,0.0,30.15,West,270,0.0,5.0,0,0.00,,,0.00,Weather View 32 v70,2013-05-29 08:10:00,
2013-05-29 04:15:00,63.7,0.0,30.15,North,0,0.0,5.0,0,0.00,,,0.00,Weather View 32 v70,2013-05-29 08:15:00,
2013-05-29 04:20:00,63.5,0.0,30.15,West,270,0.0,5.0,0,0.00,,,0.00,Weather View 32 v70,2013-05-29 08:20:00,
2013-05-29 04:26:00,63.5,0.0,30.16,West,270,1.0,4.0,0,0.00,,,0.00,Weather View 32 v70,2013-05-29 08:26:00,
2013-05-29 04:31:00,63.3,0.0,30.15,West,270,0.0,3.0,0,0.00,,,0.00,Weather View 32 v70,2013-05-29 08:31:00,
2013-05-29 04:36:00,63.1,0.0,30.16,West,270,0.0,3.0,0,0.00,,,0.00,Weather View 32 v70,2013-05-29 08:36:00,
2013-05-29 04:41:00,63.1,0.0,30.16,West,270,0.0,3.0,0,0.00,,,0.00,Weather View 32 v70,2013-05-29 08:41:00,
2013-05-29 04:46:00,63.0,0.0,30.16,West,270,0.0,3.0,0,0.00,,,0.00,Weather View 32 v70,2013-05-29 08:46:00,
2013-05-29 04:51:00,62.8,0.0,30.16,West,270,0.0,3.0,0,0.00,,,0.00,Weather View 32 v70,2013-05-29 08:51:00,
2013-05-29 04:56:00,62.4,0.0,30.15,West,270,0.0,3.0,0,0.00,,,0.00,Weather View 32 v70,2013-05-29 08:56:00,
2013-05-29 05:01:00,62.8,0.0,30.16,West,270,0.0,3.0,0,0.00,,,0.00,Weather View 32 v70,2013-05-29 09:01:00,
2013-05-29 05:06:00,62.4,0.0,30.16,West,270,0.0,3.0,0,0.00,,,0.00,Weather View 32 v70,2013-05-29 09:06:00,
2013-05-29 05:11:00,62.2,0.0,30.16,North,0,0.0,3.0,0,0.00,,,0.00,Weather View 32 v70,2013-05-29 09:11:00,
2013-05-29 05:16:00,62.2,0.0,30.17,West,270,0.0,3.0,0,0.00,,,0.00,Weather View 32 v70,2013-05-29 09:16:00,
2013-05-29 05:22:00,62.2,0.0,30.17,West,270,0.0,2.0,0,0.00,,,0.00,Weather View 32 v70,2013-05-29 09:22:00,
2013-05-29 05:27:00,62.2,0.0,30.17,West,270,0.0,2.0,0,0.00,,,0.00,Weather View 32 v70,2013-05-29 09:27:00,
2013-05-29 05:32:00,61.9,0.0,30.15,West,270,0.0,2.0,0,0.00,,,0.00,Weather View 32 v70,2013-05-29 09:32:00,
2013-05-29 05:37:00,62.1,0.0,30.17,West,270,0.0,2.0,0,0.00,,,0.00,Weather View 32 v70,2013-05-29 09:37:00,
2013-05-29 05:42:00,62.1,0.0,30.17,West,270,0.0,2.0,0,0.00,,,0.00,Weather View 32 v70,2013-05-29 09:42:00,
2013-05-29 05:47:00,61.7,0.0,30.15,West,270,0.0,2.0,0,0.00,,,0.00,Weather View 32 v70,2013-05-29 09:47:00,
2013-05-29 05:52:00,61.9,0.0,30.16,West,270,0.0,2.0,0,0.00,,,0.00,Weather View 32 v70,2013-05-29 09:52:00,
2013-05-29 05:57:00,61.9,0.0,30.18,West,270,0.0,2.0,0,0.00,,,0.00,Weather View 32 v70,2013-05-29 09:57:00,
2013-05-29 06:03:00,61.7,0.0,30.18,West,270,0.0,2.0,0,0.00,,,0.00,Weather View 32 v70,2013-05-29 10:03:00,
2013-05-29 06:08:00,61.9,0.0,30.17,West,270,0.0,2.0,0,0.00,,,0.00,Weather View 32 v70,2013-05-29 10:08:00,
2013-05-29 06:13:00,61.9,0.0,30.17,West,270,0.0,2.0,0,0.00,,,0.00,Weather View 32 v70,2013-05-29 10:13:00,
2013-05-29 06:18:00,61.9,0.0,30.19,West,270,0.0,2.0,0,0.00,,,0.00,Weather View 32 v70,2013-05-29 10:18:00,
2013-05-29 06:23:00,61.9,0.0,30.18,West,270,0.0,2.0,0,0.00,,,0.00,Weather View 32 v70,2013-05-29 10:23:00,
2013-05-29 06:28:00,61.9,0.0,30.17,West,270,0.0,2.0,0,0.00,,,0.00,Weather View 32 v70,2013-05-29 10:28:00,
2013-05-29 06:33:00,62.1,0.0,30.17,North,0,0.0,2.0,0,0.00,,,0.00,Weather View 32 v70,2013-05-29 10:33:00,
2013-05-29 06:38:00,62.2,0.0,30.17,North,0,1.0,2.0,0,0.00,,,0.00,Weather View 32 v70,2013-05-29 10:38:00,
2013-05-29 06:43:00,62.2,0.0,30.17,West,270,0.0,2.0,0,0.00,,,0.00,Weather View 32 v70,2013-05-29 10:43:00,
2013-05-29 06:49:00,62.2,0.0,30.17,West,270,1.0,3.0,0,0.00,,,0.00,Weather View 32 v70,2013-05-29 10:49:00,
2013-05-29 06:54:00,62.4,0.0,30.18,South,180,4.0,4.0,0,0.00,,,0.00,Weather View 32 v70,2013-05-29 10:54:00,
2013-05-29 06:59:00,62.8,0.0,30.18,West,270,0.0,4.0,0,0.00,,,0.00,Weather View 32 v70,2013-05-29 10:59:00,
2013-05-29 07:04:00,63.0,0.0,30.17,South,180,2.0,4.0,0,0.00,,,0.00,Weather View 32 v70,2013-05-29 11:04:00,
2013-05-29 07:09:00,63.3,0.0,30.18,West,270,1.0,4.0,0,0.00,,,0.00,Weather View 32 v70,2013-05-29 11:09:00,
2013-05-29 07:14:00,63.5,0.0,30.18,West,270,0.0,5.0,0,0.00,,,0.00,Weather View 32 v70,2013-05-29 11:14:00,
2013-05-29 07:19:00,63.9,0.0,30.18,North,0,2.0,6.0,0,0.00,,,0.00,Weather View 32 v70,2013-05-29 11:19:00,
2013-05-29 07:25:00,64.2,0.0,30.18,North,0,3.0,7.0,0,0.00,,,0.00,Weather View 32 v70,2013-05-29 11:25:00,
2013-05-29 07:30:00,64.4,0.0,30.18,North,0,3.0,7.0,0,0.00,,,0.00,Weather View 32 v70,2013-05-29 11:30:00,
2013-05-29 07:35:00,64.6,0.0,30.17,West,270,1.0,7.0,0,0.00,,,0.00,Weather View 32 v70,2013-05-29 11:35:00,
2013-05-29 07:40:00,64.9,0.0,30.17,North,0,5.0,7.0,0,0.00,,,0.00,Weather View 32 v70,2013-05-29 11:40:00,
2013-05-29 07:45:00,65.1,0.0,30.18,North,0,2.0,7.0,0,0.00,,,0.00,Weather View 32 v70,2013-05-29 11:45:00,
2013-05-29 07:50:00,65.5,0.0,30.18,South,180,3.0,8.0,0,0.00,,,0.00,Weather View 32 v70,2013-05-29 11:50:00,
2013-05-29 07:55:00,65.8,0.0,30.18,North,0,1.0,8.0,0,0.00,,,0.00,Weather View 32 v70,2013-05-29 11:55:00,
2013-05-29 08:00:00,66.2,0.0,30.18,West,270,1.0,12.0,0,0.00,,,0.00,Weather View 32 v70,2013-05-29 12:00:00,
2013-05-29 08:05:00,66.4,0.0,30.18,West,270,4.0,12.0,0,0.00,,,0.00,Weather View 32 v70,2013-05-29 12:05:00,
2013-05-29 08:10:00,66.7,0.0,30.19,South,180,3.0,12.0,0,0.00,,,0.00,Weather View 32 v70,2013-05-29 12:10:00,
2013-05-29 08:15:00,66.9,0.0,30.18,North,0,8.0,12.0,0,0.00,,,0.00,Weather View 32 v70,2013-05-29 12:15:00,
2013-05-29 08:20:00,67.3,0.0,30.19,South,180,5.0,12.0,0,0.00,,,0.00,Weather View 32 v70,2013-05-29 12:20:00,
2013-05-29 08:25:00,67.6,0.0,30.19,West,270,1.0,12.0,0,0.00,,,0.00,Weather View 32 v70,2013-05-29 12:25:00,
2013-05-29 08:30:00,68.0,0.0,30.20,WNW,293,3.0,12.0,0,0.00,,,0.00,Weather View 32 v70,2013-05-29 12:30:00,
2013-05-29 08:35:00,68.5,0.0,30.22,North,0,3.0,12.0,0,0.00,,,0.00,Weather View 32 v70,2013-05-29 12:35:00,
2013-05-29 08:40:00,69.1,0.0,30.21,South,180,4.0,12.0,0,0.00,,,0.00,Weather View 32 v70,2013-05-29 12:40:00,
2013-05-29 08:45:00,69.6,0.0,30.20,WNW,293,0.0,12.0,0,0.00,,,0.00,Weather View 32 v70,2013-05-29 12:45:00,
2013-05-29 08:50:00,70.2,0.0,30.19,North,0,4.0,12.0,0,0.00,,,0.00,Weather View 32 v70,2013-05-29 12:50:00,
2013-05-29 08:56:00,70.3,0.0,30.19,South,180,4.0,12.0,0,0.00,,,0.00,Weather View 32 v70,2013-05-29 12:56:00,
2013-05-29 09:01:00,70.9,0.0,30.19,WNW,293,0.0,12.0,0,0.00,,,0.00,Weather View 32 v70,2013-05-29 13:01:00,
2013-05-29 09:06:00,71.2,0.0,30.21,South,180,8.0,12.0,0,0.00,,,0.00,Weather View 32 v70,2013-05-29 13:06:00,
2013-05-29 09:11:00,71.8,0.0,30.20,South,180,2.0,12.0,0,0.00,,,0.00,Weather View 32 v70,2013-05-29 13:11:00,
2013-05-29 09:16:00,72.1,0.0,30.21,North,0,2.0,12.0,0,0.00,,,0.00,Weather View 32 v70,2013-05-29 13:16:00,
2013-05-29 09:21:00,73.0,0.0,30.21,South,180,2.0,11.0,0,0.00,,,0.00,Weather View 32 v70,2013-05-29 13:21:00,
2013-05-29 09:26:00,73.8,0.0,30.19,North,0,2.0,11.0,0,0.00,,,0.00,Weather View 32 v70,2013-05-29 13:26:00,
2013-05-29 09:31:00,74.8,0.0,30.20,North,0,3.0,11.0,0,0.00,,,0.00,Weather View 32 v70,2013-05-29 13:31:00,
2013-05-29 09:36:00,76.1,0.0,30.20,SSE,158,6.0,11.0,0,0.00,,,0.00,Weather View 32 v70,2013-05-29 13:36:00,
2013-05-29 09:42:00,77.2,0.0,30.19,South,180,8.0,11.0,0,0.00,,,0.00,Weather View 32 v70,2013-05-29 13:42:00,
2013-05-29 09:47:00,78.1,0.0,30.18,South,180,5.0,11.0,0,0.00,,,0.00,Weather View 32 v70,2013-05-29 13:47:00,
2013-05-29 09:52:00,79.3,0.0,30.20,West,270,5.0,11.0,0,0.00,,,0.00,Weather View 32 v70,2013-05-29 13:52:00,
2013-05-29 09:57:00,80.2,0.0,30.19,South,180,7.0,11.0,0,0.00,,,0.00,Weather View 32 v70,2013-05-29 13:57:00,
2013-05-29 10:02:00,81.0,0.0,30.19,West,270,0.0,11.0,0,0.00,,,0.00,Weather View 32 v70,2013-05-29 14:02:00,
2013-05-29 10:07:00,81.3,0.0,30.20,South,180,2.0,11.0,0,0.00,,,0.00,Weather View 32 v70,2013-05-29 14:07:00,
2013-05-29 10:12:00,82.4,0.0,30.21,West,270,0.0,11.0,0,0.00,,,0.00,Weather View 32 v70,2013-05-29 14:12:00,
2013-05-29 10:17:00,82.6,0.0,30.21,North,0,7.0,11.0,0,0.00,,,0.00,Weather View 32 v70,2013-05-29 14:17:00,
2013-05-29 10:22:00,83.1,0.0,30.20,South,180,10.0,12.0,0,0.00,,,0.00,Weather View 32 v70,2013-05-29 14:22:00,
2013-05-29 10:27:00,83.7,0.0,30.20,North,0,3.0,16.0,0,0.00,,,0.00,Weather View 32 v70,2013-05-29 14:27:00,
2013-05-29 10:33:00,83.7,0.0,30.20,West,270,0.0,16.0,0,0.00,,,0.00,Weather View 32 v70,2013-05-29 14:33:00,
2013-05-29 10:38:00,84.0,0.0,30.23,North,0,4.0,16.0,0,0.00,,,0.00,Weather View 32 v70,2013-05-29 14:38:00,
2013-05-29 10:43:00,84.0,0.0,30.19,West,270,1.0,16.0,0,0.00,,,0.00,Weather View 32 v70,2013-05-29 14:43:00,
2013-05-29 10:48:00,83.7,0.0,30.22,South,180,2.0,16.0,0,0.00,,,0.00,Weather View 32 v70,2013-05-29 14:48:00,
2013-05-29 10:53:00,83.7,0.0,30.20,North,0,1.0,16.0,0,0.00,,,0.00,Weather View 32 v70,2013-05-29 14:53:00,
2013-05-29 10:58:00,84.4,0.0,30.20,North,0,3.0,16.0,0,0.00,,,0.00,Weather View 32 v70,2013-05-29 14:58:00,
2013-05-29 11:03:00,84.4,0.0,30.21,South,180,5.0,16.0,0,0.00,,,0.00,Weather View 32 v70,2013-05-29 15:03:00,
2013-05-29 11:08:00,84.7,0.0,30.20,West,270,2.0,16.0,0,0.00,,,0.00,Weather View 32 v70,2013-05-29 15:08:00,
2013-05-29 11:13:00,84.9,0.0,30.22,South,180,4.0,16.0,0,0.00,,,0.00,Weather View 32 v70,2013-05-29 15:13:00,
2013-05-29 11:18:00,85.1,0.0,30.23,South,180,8.0,16.0,0,0.00,,,0.00,Weather View 32 v70,2013-05-29 15:18:00,
2013-05-29 11:23:00,84.9,0.0,30.21,North,0,5.0,11.0,0,0.00,,,0.00,Weather View 32 v70,2013-05-29 15:23:00,
2013-05-29 11:28:00,85.5,0.0,30.21,WNW,293,0.0,11.0,0,0.00,,,0.00,Weather View 32 v70,2013-05-29 15:28:00,
2013-05-29 11:33:00,85.5,0.0,30.21,West,270,1.0,11.0,0,0.00,,,0.00,Weather View 32 v70,2013-05-29 15:33:00,
2013-05-29 11:39:00,85.8,0.0,30.23,North,0,1.0,11.0,0,0.00,,,0.00,Weather View 32 v70,2013-05-29 15:39:00,
2013-05-29 11:44:00,85.8,0.0,30.21,North,0,5.0,11.0,0,0.00,,,0.00,Weather View 32 v70,2013-05-29 15:44:00,
2013-05-29 11:49:00,86.0,0.0,30.21,West,270,2.0,11.0,0,0.00,,,0.00,Weather View 32 v70,2013-05-29 15:49:00,
2013-05-29 11:54:00,86.4,0.0,30.21,North,0,4.0,11.0,0,0.00,,,0.00,Weather View 32 v70,2013-05-29 15:54:00,
2013-05-29 11:59:00,86.5,0.0,30.21,North,0,9.0,11.0,0,0.00,,,0.00,Weather View 32 v70,2013-05-29 15:59:00,
2013-05-29 12:05:00,86.9,0.0,30.21,West,270,2.0,11.0,0,0.00,,,0.00,Weather View 32 v70,2013-05-29 16:05:00,
2013-05-29 12:10:00,86.7,0.0,30.21,South,180,6.0,11.0,0,0.00,,,0.00,Weather View 32 v70,2013-05-29 16:10:00,
2013-05-29 12:15:00,87.1,0.0,30.22,North,0,2.0,11.0,0,0.00,,,0.00,Weather View 32 v70,2013-05-29 16:15:00,
2013-05-29 12:20:00,87.6,0.0,30.21,West,270,0.0,11.0,0,0.00,,,0.00,Weather View 32 v70,2013-05-29 16:20:00,
2013-05-29 12:25:00,87.4,0.0,30.24,South,180,2.0,11.0,0,0.00,,,0.00,Weather View 32 v70,2013-05-29 16:25:00,
2013-05-29 12:30:00,87.4,0.0,30.22,North,0,0.0,11.0,0,0.00,,,0.00,Weather View 32 v70,2013-05-29 16:30:00,
2013-05-29 12:35:00,87.3,0.0,30.20,North,0,6.0,11.0,0,0.00,,,0.00,Weather View 32 v70,2013-05-29 16:35:00,
2013-05-29 12:40:00,87.3,0.0,30.21,West,270,2.0,11.0,0,0.00,,,0.00,Weather View 32 v70,2013-05-29 16:40:00,
2013-05-29 12:45:00,87.3,0.0,30.21,WNW,293,0.0,11.0,0,0.00,,,0.00,Weather View 32 v70,2013-05-29 16:45:00,
2013-05-29 12:50:00,87.1,0.0,30.21,West,270,1.0,11.0,0,0.00,,,0.00,Weather View 32 v70,2013-05-29 16:50:00,
2013-05-29 12:56:00,87.3,0.0,30.19,North,0,2.0,11.0,0,0.00,,,0.00,Weather View 32 v70,2013-05-29 16:56:00,
2013-05-29 13:01:00,87.6,0.0,30.20,North,0,5.0,14.0,0,0.00,,,0.00,Weather View 32 v70,2013-05-29 17:01:00,
2013-05-29 13:06:00,87.4,0.0,30.20,SSE,158,5.0,14.0,0,0.00,,,0.00,Weather View 32 v70,2013-05-29 17:06:00,
2013-05-29 13:11:00,87.3,0.0,30.20,South,180,4.0,14.0,0,0.00,,,0.00,Weather View 32 v70,2013-05-29 17:11:00,
2013-05-29 13:16:00,87.1,0.0,30.18,West,270,0.0,14.0,0,0.00,,,0.00,Weather View 32 v70,2013-05-29 17:16:00,
2013-05-29 13:22:00,87.8,0.0,30.19,WNW,293,0.0,14.0,0,0.00,,,0.00,Weather View 32 v70,2013-05-29 17:22:00,
2013-05-29 13:27:00,87.3,0.0,30.23,West,270,0.0,14.0,0,0.00,,,0.00,Weather View 32 v70,2013-05-29 17:27:00,
2013-05-29 13:32:00,87.8,0.0,30.19,South,180,8.0,14.0,0,0.00,,,0.00,Weather View 32 v70,2013-05-29 17:32:00,
2013-05-29 13:37:00,87.6,0.0,30.19,South,180,3.0,14.0,0,0.00,,,0.00,Weather View 32 v70,2013-05-29 17:37:00,
2013-05-29 13:42:00,87.6,0.0,30.19,South,180,3.0,14.0,0,0.00,,,0.00,Weather View 32 v70,2013-05-29 17:42:00,
2013-05-29 13:47:00,87.8,0.0,30.18,South,180,9.0,14.0,0,0.00,,,0.00,Weather View 32 v70,2013-05-29 17:47:00,
2013-05-29 13:52:00,87.8,0.0,30.17,South,180,2.0,14.0,0,0.00,,,0.00,Weather View 32 v70,2013-05-29 17:52:00,
2013-05-29 13:58:00,88.2,0.0,30.18,West,270,0.0,14.0,0,0.00,,,0.00,Weather View 32 v70,2013-05-29 17:58:00,
2013-05-29 14:02:00,88.2,0.0,30.18,West,270,0.0,14.0,0,0.00,,,0.00,Weather View 32 v70,2013-05-29 18:02:00,
2013-05-29 14:08:00,87.6,0.0,30.18,West,270,1.0,14.0,0,0.00,,,0.00,Weather View 32 v70,2013-05-29 18:08:00,
2013-05-29 14:13:00,87.8,0.0,30.16,West,270,0.0,14.0,0,0.00,,,0.00,Weather View 32 v70,2013-05-29 18:13:00,
2013-05-29 14:18:00,87.8,0.0,30.18,South,180,2.0,14.0,0,0.00,,,0.00,Weather View 32 v70,2013-05-29 18:18:00,
2013-05-29 14:23:00,87.6,0.0,30.21,WNW,293,2.0,14.0,0,0.00,,,0.00,Weather View 32 v70,2013-05-29 18:23:00,
2013-05-29 14:28:00,87.6,0.0,30.21,West,270,0.0,14.0,0,0.00,,,0.00,Weather View 32 v70,2013-05-29 18:28:00,
2013-05-29 14:34:00,87.8,0.0,30.17,West,270,2.0,12.0,0,0.00,,,0.00,Weather View 32 v70,2013-05-29 18:34:00,
2013-05-29 14:39:00,87.6,0.0,30.17,North,0,4.0,10.0,0,0.00,,,0.00,Weather View 32 v70,2013-05-29 18:39:00,
2013-05-29 14:44:00,86.9,0.0,30.17,South,180,3.0,10.0,0,0.00,,,0.00,Weather View 32 v70,2013-05-29 18:44:00,
2013-05-29 14:49:00,87.6,0.0,30.16,North,0,5.0,11.0,0,0.00,,,0.00,Weather View 32 v70,2013-05-29 18:49:00,
2013-05-29 14:54:00,88.2,0.0,30.17,North,0,4.0,11.0,0,0.00,,,0.00,Weather View 32 v70,2013-05-29 18:54:00,
2013-05-29 14:59:00,88.0,0.0,30.16,North,0,2.0,11.0,0,0.00,,,0.00,Weather View 32 v70,2013-05-29 18:59:00,
2013-05-29 15:05:00,88.9,0.0,30.16,West,270,4.0,11.0,0,0.00,,,0.00,Weather View 32 v70,2013-05-29 19:05:00,
2013-05-29 15:10:00,89.2,0.0,30.16,South,180,5.0,13.0,0,0.00,,,0.00,Weather View 32 v70,2013-05-29 19:10:00,
2013-05-29 15:15:00,88.7,0.0,30.15,South,180,5.0,13.0,0,0.00,,,0.00,Weather View 32 v70,2013-05-29 19:15:00,
2013-05-29 15:20:00,88.3,0.0,30.15,North,0,8.0,13.0,0,0.00,,,0.00,Weather View 32 v70,2013-05-29 19:20:00,
2013-05-29 15:25:00,87.3,0.0,30.19,West,270,1.0,13.0,0,0.00,,,0.00,Weather View 32 v70,2013-05-29 19:25:00,
2013-05-29 15:30:00,86.4,0.0,30.17,South,180,5.0,13.0,0,0.00,,,0.00,Weather View 32 v70,2013-05-29 19:30:00,
2013-05-29 15:35:00,86.0,0.0,30.16,West,270,4.0,13.0,0,0.00,,,0.00,Weather View 32 v70,2013-05-29 19:35:00,
2013-05-29 15:40:00,87.3,0.0,30.16,North,0,3.0,13.0,0,0.00,,,0.00,Weather View 32 v70,2013-05-29 19:40:00,
2013-05-29 15:46:00,86.9,0.0,30.16,West,270,0.0,13.0,0,0.00,,,0.00,Weather View 32 v70,2013-05-29 19:46:00,
2013-05-29 15:51:00,86.5,0.0,30.15,West,270,4.0,13.0,0,0.00,,,0.00,Weather View 32 v70,2013-05-29 19:51:00,
2013-05-29 15:56:00,86.7,0.0,30.15,West,270,0.0,13.0,0,0.00,,,0.00,Weather View 32 v70,2013-05-29 19:56:00,
2013-05-29 16:01:00,87.3,0.0,30.16,South,180,6.0,13.0,0,0.00,,,0.00,Weather View 32 v70,2013-05-29 20:01:00,
2013-05-29 16:06:00,87.4,0.0,30.15,North,0,4.0,13.0,0,0.00,,,0.00,Weather View 32 v70,2013-05-29 20:06:00,
2013-05-29 16:11:00,86.9,0.0,30.15,WNW,293,1.0,12.0,0,0.00,,,0.00,Weather View 32 v70,2013-05-29 20:11:00,
2013-05-29 16:16:00,86.5,0.0,30.15,South,180,7.0,12.0,0,0.00,,,0.00,Weather View 32 v70,2013-05-29 20:16:00,
2013-05-29 16:21:00,86.9,0.0,30.14,West,270,0.0,12.0,0,0.00,,,0.00,Weather View 32 v70,2013-05-29 20:21:00,
2013-05-29 16:26:00,87.3,0.0,30.15,South,180,5.0,12.0,0,0.00,,,0.00,Weather View 32 v70,2013-05-29 20:26:00,
2013-05-29 16:31:00,87.1,0.0,30.14,North,0,2.0,12.0,0,0.00,,,0.00,Weather View 32 v70,2013-05-29 20:31:00,
2013-05-29 16:37:00,87.1,0.0,30.17,North,0,1.0,12.0,0,0.00,,,0.00,Weather View 32 v70,2013-05-29 20:37:00,
2013-05-29 16:42:00,87.6,0.0,30.14,North,0,3.0,12.0,0,0.00,,,0.00,Weather View 32 v70,2013-05-29 20:42:00,
2013-05-29 16:47:00,87.8,0.0,30.13,South,180,3.0,12.0,0,0.00,,,0.00,Weather View 32 v70,2013-05-29 20:47:00,
2013-05-29 16:52:00,87.1,0.0,30.16,West,270,0.0,12.0,0,0.00,,,0.00,Weather View 32 v70,2013-05-29 20:52:00,
2013-05-29 16:57:00,87.1,0.0,30.15,West,270,0.0,12.0,0,0.00,,,0.00,Weather View 32 v70,2013-05-29 20:57:00,
2013-05-29 17:02:00,86.7,0.0,30.16,South,180,9.0,12.0,0,0.00,,,0.00,Weather View 32 v70,2013-05-29 21:02:00,
2013-05-29 17:07:00,86.0,0.0,30.14,North,0,3.0,11.0,0,0.00,,,0.00,Weather View 32 v70,2013-05-29 21:07:00,
2013-05-29 17:12:00,86.0,0.0,30.14,West,270,3.0,11.0,0,0.00,,,0.00,Weather View 32 v70,2013-05-29 21:12:00,
2013-05-29 17:18:00,85.5,0.0,30.14,South,180,4.0,10.0,0,0.00,,,0.00,Weather View 32 v70,2013-05-29 21:18:00,
2013-05-29 17:23:00,85.3,0.0,30.16,North,0,6.0,10.0,0,0.00,,,0.00,Weather View 32 v70,2013-05-29 21:23:00,
2013-05-29 17:28:00,84.6,0.0,30.12,North,0,2.0,10.0,0,0.00,,,0.00,Weather View 32 v70,2013-05-29 21:28:00,
2013-05-29 17:33:00,83.8,0.0,30.14,North,0,4.0,10.0,0,0.00,,,0.00,Weather View 32 v70,2013-05-29 21:33:00,
2013-05-29 17:38:00,84.4,0.0,30.14,West,270,2.0,10.0,0,0.00,,,0.00,Weather View 32 v70,2013-05-29 21:38:00,
2013-05-29 17:43:00,83.5,0.0,30.14,WNW,293,0.0,11.0,0,0.00,,,0.00,Weather View 32 v70,2013-05-29 21:43:00,
2013-05-29 17:48:00,83.8,0.0,30.14,North,0,1.0,11.0,0,0.00,,,0.00,Weather View 32 v70,2013-05-29 21:48:00,
2013-05-29 17:53:00,84.0,0.0,30.14,South,180,3.0,11.0,0,0.00,,,0.00,Weather View 32 v70,2013-05-29 21:53:00,
2013-05-29 17:58:00,83.5,0.0,30.14,South,180,4.0,13.0,0,0.00,,,0.00,Weather View 32 v70,2013-05-29 21:58:00,
2013-05-29 18:04:00,82.8,0.0,30.15,South,180,7.0,13.0,0,0.00,,,0.00,Weather View 32 v70,2013-05-29 22:04:00,
2013-05-29 18:09:00,82.0,0.0,30.15,North,0,2.0,13.0,0,0.00,,,0.00,Weather View 32 v70,2013-05-29 22:09:00,
2013-05-29 18:14:00,81.9,0.0,30.14,West,270,0.0,13.0,0,0.00,,,0.00,Weather View 32 v70,2013-05-29 22:14:00,
2013-05-29 18:19:00,81.9,0.0,30.14,North,0,3.0,13.0,0,0.00,,,0.00,Weather View 32 v70,2013-05-29 22:19:00,
2013-05-29 18:24:00,81.5,0.0,30.14,South,180,4.0,13.0,0,0.00,,,0.00,Weather View 32 v70,2013-05-29 22:24:00,
2013-05-29 18:29:00,81.3,0.0,30.14,West,270,0.0,13.0,0,0.00,,,0.00,Weather View 32 v70,2013-05-29 22:29:00,
2013-05-29 18:34:00,81.0,0.0,30.13,North,0,4.0,13.0,0,0.00,,,0.00,Weather View 32 v70,2013-05-29 22:34:00,
2013-05-29 18:40:00,80.8,0.0,30.14,North,0,2.0,13.0,0,0.00,,,0.00,Weather View 32 v70,2013-05-29 22:40:00,
2013-05-29 18:45:00,80.6,0.0,30.13,North,0,3.0,13.0,0,0.00,,,0.00,Weather View 32 v70,2013-05-29 22:45:00,
2013-05-29 18:50:00,80.4,0.0,30.13,West,270,0.0,13.0,0,0.00,,,0.00,Weather View 32 v70,2013-05-29 22:50:00,
2013-05-29 18:55:00,80.1,0.0,30.14,SSE,158,5.0,13.0,0,0.00,,,0.00,Weather View 32 v70,2013-05-29 22:55:00,
2013-05-29 19:00:00,80.1,0.0,30.13,South,180,6.0,10.0,0,0.00,,,0.00,Weather View 32 v70,2013-05-29 23:00:00,
2013-05-29 19:05:00,80.1,0.0,30.14,West,270,2.0,10.0,0,0.00,,,0.00,Weather View 32 v70,2013-05-29 23:05:00,
2013-05-29 19:10:00,79.7,0.0,30.13,North,0,4.0,10.0,0,0.00,,,0.00,Weather View 32 v70,2013-05-29 23:10:00,
2013-05-29 19:15:00,79.3,0.0,30.13,West,270,1.0,10.0,0,0.00,,,0.00,Weather View 32 v70,2013-05-29 23:15:00,
2013-05-29 19:20:00,79.3,0.0,30.13,South,180,5.0,10.0,0,0.00,,,0.00,Weather View 32 v70,2013-05-29 23:20:00,
2013-05-29 19:25:00,79.0,0.0,30.12,North,0,2.0,10.0,0,0.00,,,0.00,Weather View 32 v70,2013-05-29 23:25:00,
2013-05-29 19:30:00,79.0,0.0,30.13,West,270,0.0,10.0,0,0.00,,,0.00,Weather View 32 v70,2013-05-29 23:30:00,
2013-05-29 19:36:00,78.4,0.0,30.14,West,270,1.0,10.0,0,0.00,,,0.00,Weather View 32 v70,2013-05-29 23:36:00,
2013-05-29 19:41:00,77.7,0.0,30.11,West,270,0.0,10.0,0,0.00,,,0.00,Weather View 32 v70,2013-05-29 23:41:00,
2013-05-29 19:46:00,77.7,0.0,30.12,West,270,0.0,10.0,0,0.00,,,0.00,Weather View 32 v70,2013-05-29 23:46:00,
2013-05-29 19:51:00,77.4,0.0,30.12,West,270,0.0,10.0,0,0.00,,,0.00,Weather View 32 v70,2013-05-29 23:51:00,
2013-05-29 19:57:00,76.8,0.0,30.10,West,270,0.0,8.0,0,0.00,,,0.00,Weather View 32 v70,2013-05-29 23:57:00,
2013-05-29 20:02:00,76.6,0.0,30.13,West,270,0.0,8.0,0,0.00,,,0.00,Weather View 32 v70,2013-05-30 00:02:00,
2013-05-29 20:07:00,76.1,0.0,30.13,West,270,0.0,6.0,0,0.00,,,0.00,Weather View 32 v70,2013-05-30 00:07:00,
2013-05-29 20:12:00,75.6,0.0,30.13,West,270,0.0,6.0,0,0.00,,,0.00,Weather View 32 v70,2013-05-30 00:12:00,
2013-05-29 20:17:00,75.0,0.0,30.13,West,270,0.0,6.0,0,0.00,,,0.00,Weather View 32 v70,2013-05-30 00:17:00,
2013-05-29 20:22:00,74.7,0.0,30.13,West,270,0.0,6.0,0,0.00,,,0.00,Weather View 32 v70,2013-05-30 00:22:00,
2013-05-29 20:27:00,74.3,0.0,30.13,West,270,0.0,6.0,0,0.00,,,0.00,Weather View 32 v70,2013-05-30 00:27:00,
2013-05-29 20:33:00,73.9,0.0,30.13,West,270,0.0,5.0,0,0.00,,,0.00,Weather View 32 v70,2013-05-30 00:33:00,
2013-05-29 20:38:00,73.2,0.0,30.14,West,270,0.0,4.0,0,0.00,,,0.00,Weather View 32 v70,2013-05-30 00:38:00,
2013-05-29 20:43:00,72.7,0.0,30.14,West,270,0.0,3.0,0,0.00,,,0.00,Weather View 32 v70,2013-05-30 00:43:00,
2013-05-29 20:48:00,72.3,0.0,30.14,West,270,0.0,3.0,0,0.00,,,0.00,Weather View 32 v70,2013-05-30 00:48:00,
2013-05-29 20:53:00,72.1,0.0,30.14,West,270,0.0,2.0,0,0.00,,,0.00,Weather View 32 v70,2013-05-30 00:53:00,
2013-05-29 20:58:00,71.6,0.0,30.14,West,270,0.0,2.0,0,0.00,,,0.00,Weather View 32 v70,2013-05-30 00:58:00,
2013-05-29 21:03:00,71.2,0.0,30.14,West,270,0.0,2.0,0,0.00,,,0.00,Weather View 32 v70,2013-05-30 01:03:00,
2013-05-29 21:08:00,71.1,0.0,30.13,West,270,0.0,0.0,0,0.00,,,0.00,Weather View 32 v70,2013-05-30 01:08:00,
2013-05-29 21:14:00,71.1,0.0,30.14,West,270,0.0,0.0,0,0.00,,,0.00,Weather View 32 v70,2013-05-30 01:14:00,
2013-05-29 21:19:00,71.1,0.0,30.14,West,270,0.0,0.0,0,0.00,,,0.00,Weather View 32 v70,2013-05-30 01:19:00,
2013-05-29 21:24:00,70.7,0.0,30.13,West,270,0.0,0.0,0,0.00,,,0.00,Weather View 32 v70,2013-05-30 01:24:00,
2013-05-29 21:29:00,70.3,0.0,30.15,West,270,0.0,0.0,0,0.00,,,0.00,Weather View 32 v70,2013-05-30 01:29:00,
2013-05-29 21:34:00,70.2,0.0,30.14,West,270,0.0,0.0,0,0.00,,,0.00,Weather View 32 v70,2013-05-30 01:34:00,
2013-05-29 21:39:00,69.8,0.0,30.15,West,270,0.0,0.0,0,0.00,,,0.00,Weather View 32 v70,2013-05-30 01:39:00,
2013-05-29 21:45:00,69.6,0.0,30.15,West,270,0.0,0.0,0,0.00,,,0.00,Weather View 32 v70,2013-05-30 01:45:00,
2013-05-29 21:50:00,69.8,0.0,30.15,West,270,0.0,0.0,0,0.00,,,0.00,Weather View 32 v70,2013-05-30 01:50:00,
2013-05-29 21:55:00,69.8,0.0,30.16,West,270,0.0,0.0,0,0.00,,,0.00,Weather View 32 v70,2013-05-30 01:55:00,
2013-05-29 22:00:00,69.6,0.0,30.15,West,270,0.0,0.0,0,0.00,,,0.00,Weather View 32 v70,2013-05-30 02:00:00,
2013-05-29 22:05:00,69.4,0.0,30.15,West,270,0.0,0.0,0,0.00,,,0.00,Weather View 32 v70,2013-05-30 02:05:00,
2013-05-29 22:10:00,69.3,0.0,30.15,West,270,0.0,0.0,0,0.00,,,0.00,Weather View 32 v70,2013-05-30 02:10:00,
2013-05-29 22:15:00,69.1,0.0,30.16,West,270,0.0,0.0,0,0.00,,,0.00,Weather View 32 v70,2013-05-30 02:15:00,
2013-05-29 22:20:00,68.7,0.0,30.16,West,270,0.0,0.0,0,0.00,,,0.00,Weather View 32 v70,2013-05-30 02:20:00,
2013-05-29 22:26:00,68.7,0.0,30.17,West,270,0.0,0.0,0,0.00,,,0.00,Weather View 32 v70,2013-05-30 02:26:00,
2013-05-29 22:31:00,68.5,0.0,30.17,West,270,0.0,0.0,0,0.00,,,0.00,Weather View 32 v70,2013-05-30 02:31:00,
2013-05-29 22:36:00,68.2,0.0,30.17,West,270,0.0,0.0,0,0.00,,,0.00,Weather View 32 v70,2013-05-30 02:36:00,
2013-05-29 22:41:00,68.2,0.0,30.17,West,270,0.0,0.0,0,0.00,,,0.00,Weather View 32 v70,2013-05-30 02:41:00,
2013-05-29 22:46:00,68.2,0.0,30.17,West,270,0.0,0.0,0,0.00,,,0.00,Weather View 32 v70,2013-05-30 02:46:00,
2013-05-29 22:51:00,68.2,0.0,30.18,West,270,0.0,0.0,0,0.00,,,0.00,Weather View 32 v70,2013-05-30 02:51:00,
2013-05-29 22:57:00,68.0,0.0,30.17,West,270,0.0,0.0,0,0.00,,,0.00,Weather View 32 v70,2013-05-30 02:57:00,
2013-05-29 23:02:00,68.0,0.0,30.18,West,270,0.0,0.0,0,0.00,,,0.00,Weather View 32 v70,2013-05-30 03:02:00,
2013-05-29 23:07:00,67.8,0.0,30.18,West,270,0.0,0.0,0,0.00,,,0.00,Weather View 32 v70,2013-05-30 03:07:00,
2013-05-29 23:12:00,68.0,0.0,30.18,West,270,0.0,0.0,0,0.00,,,0.00,Weather View 32 v70,2013-05-30 03:12:00,
2013-05-29 23:18:00,68.0,0.0,30.18,West,270,0.0,0.0,0,0.00,,,0.00,Weather View 32 v70,2013-05-30 03:18:00,
2013-05-29 23:23:00,68.0,0.0,30.18,West,270,0.0,1.0,0,0.00,,,0.00,Weather View 32 v70,2013-05-30 03:23:00,
2013-05-29 23:28:00,67.6,0.0,30.17,North,0,2.0,2.0,0,0.00,,,0.00,Weather View 32 v70,2013-05-30 03:28:00,
2013-05-29 23:33:00,67.6,0.0,30.19,West,270,0.0,2.0,0,0.00,,,0.00,Weather View 32 v70,2013-05-30 03:33:00,
2013-05-29 23:38:00,67.6,0.0,30.18,North,0,1.0,4.0,0,0.00,,,0.00,Weather View 32 v70,2013-05-30 03:38:00,
2013-05-29 23:43:00,67.5,0.0,30.17,West,270,0.0,4.0,0,0.00,,,0.00,Weather View 32 v70,2013-05-30 03:43:00,
2013-05-29 23:49:00,67.5,0.0,30.18,West,270,1.0,4.0,0,0.00,,,0.00,Weather View 32 v70,2013-05-30 03:49:00,
2013-05-29 23:54:00,67.3,0.0,30.18,West,270,2.0,4.0,0,0.00,,,0.00,Weather View 32 v70,2013-05-30 03:54:00,
2013-05-29 23:59:00,67.5,0.0,30.18,North,0,1.0,4.0,0,0.00,,,0.00,Weather View 32 v70,2013-05-30 03:59:00,